Total_Precipitation_Accumulation
1.17 1.09 1.01 0.93 0.81 0.71 0.64 0.58 0.51 0.45 0.38 0.30 0.22 0.15 0.10 0.09 0.06 0.05 0.05 0.08 0.12 0.11 0.10 0.09 0.19 0.24 0.24 0.22 0.22 0.20 0.18 0.15 0.13 0.12 0.09 0.05 0.04 0.04 0.05 0.05 0.07 0.10 0.12 0.09 0.08 0.07 0.05 0.04 0.04 0.03 0.01 0.00 0.00 0.00 0.00 0.00 0.00 0.00 0.00 0.00 0.00 0.00 0.00 0.00 0.00 0.00 0.00 0.00 0.00
1.26 1.19 1.09 0.93 0.86 0.79 0.71 0.62 0.56 0.46 0.35 0.29 0.22 0.17 0.13 0.10 0.07 0.06 0.06 0.08 0.09 0.10 0.10 0.11 0.25 0.34 0.40 0.41 0.30 0.24 0.22 0.20 0.17 0.13 0.09 0.08 0.07 0.07 0.08 0.09 0.11 0.12 0.10 0.06 0.05 0.03 0.03 0.03 0.02 0.01 0.01 0.00 0.00 0.00 0.00 0.00 0.00 0.00 0.00 0.00 0.00 0.00 0.00 0.00 0.00 0.00 0.00 0.00 0.00
1.27 1.22 1.14 1.03 0.95 0.88 0.82 0.75 0.67 0.55 0.43 0.34 0.27 0.21 0.16 0.13 0.07 0.05 0.06 0.08 0.09 0.15 0.22 0.22 0.28 0.39 0.48 0.51 0.47 0.38 0.28 0.21 0.17 0.14 0.10 0.07 0.09 0.10 0.12 0.14 0.14 0.09 0.05 0.04 0.03 0.03 0.03 0.02 0.02 0.01 0.01 0.00 0.00 0.00 0.00 0.00 0.00 0.00 0.00 0.00 0.00 0.00 0.00 0.00 0.00 0.00 0.00 0.00 0.00
1.14 1.14 1.10 0.99 0.94 0.88 0.82 0.76 0.67 0.59 0.51 0.43 0.34 0.26 0.21 0.17 0.09 0.06 0.05 0.06 0.17 0.25 0.30 0.34 0.40 0.46 0.50 0.52 0.55 0.50 0.41 0.31 0.25 0.19 0.15 0.14 0.15 0.16 0.15 0.11 0.08 0.06 0.05 0.04 0.04 0.03 0.03 0.04 0.03 0.02 0.01 0.01 0.00 0.00 0.00 0.00 0.00 0.00 0.00 0.00 0.00 0.00 0.00 0.00 0.00 0.00 0.00 0.00 0.00
0.90 0.92 0.92 0.86 0.84 0.80 0.76 0.71 0.70 0.61 0.52 0.48 0.42 0.36 0.33 0.32 0.26 0.21 0.20 0.25 0.27 0.29 0.35 0.47 0.51 0.53 0.55 0.58 0.58 0.61 0.61 0.53 0.38 0.27 0.21 0.19 0.14 0.10 0.08 0.08 0.07 0.06 0.06 0.05 0.07 0.06 0.05 0.04 0.03 0.02 0.01 0.01 0.00 0.00 0.00 0.00 0.00 0.00 0.00 0.00 0.00 0.00 0.00 0.00 0.00 0.00 0.00 0.00 0.00
0.82 0.75 0.70 0.63 0.62 0.61 0.60 0.60 0.58 0.52 0.46 0.46 0.50 0.53 0.54 0.52 0.38 0.30 0.26 0.24 0.25 0.30 0.39 0.54 0.60 0.65 0.70 0.72 0.69 0.67 0.68 0.70 0.62 0.51 0.39 0.27 0.16 0.12 0.12 0.09 0.09 0.10 0.12 0.14 0.11 0.08 0.06 0.04 0.02 0.02 0.01 0.01 0.01 0.00 0.00 0.00 0.00 0.00 0.00 0.00 0.00 0.00 0.00 0.00 0.00 0.00 0.00 0.00 0.00
0.97 0.86 0.71 0.52 0.45 0.41 0.39 0.39 0.42 0.43 0.45 0.49 0.50 0.51 0.52 0.52 0.50 0.43 0.35 0.27 0.25 0.27 0.34 0.49 0.48 0.55 0.64 0.74 0.75 0.72 0.68 0.63 0.67 0.67 0.61 0.50 0.38 0.28 0.21 0.16 0.15 0.15 0.15 0.16 0.11 0.07 0.03 0.02 0.01 0.01 0.00 0.01 0.01 0.00 0.00 0.00 0.00 0.01 0.02 0.01 0.01 0.01 0.01 0.01 0.00 0.00 0.00 0.00 0.01
0.82 0.93 0.83 0.57 0.49 0.42 0.37 0.33 0.37 0.43 0.46 0.45 0.43 0.42 0.42 0.43 0.46 0.46 0.43 0.36 0.32 0.35 0.40 0.40 0.41 0.43 0.48 0.58 0.65 0.70 0.69 0.61 0.62 0.63 0.64 0.63 0.56 0.41 0.26 0.20 0.18 0.17 0.15 0.10 0.07 0.05 0.03 0.02 0.03 0.03 0.02 0.02 0.02 0.02 0.01 0.01 0.02 0.03 0.04 0.02 0.02 0.03 0.03 0.04 0.04 0.04 0.03 0.02 0.04
0.25 0.28 0.34 0.49 0.49 0.47 0.44 0.43 0.42 0.41 0.41 0.39 0.37 0.35 0.34 0.36 0.39 0.40 0.40 0.39 0.43 0.46 0.49 0.51 0.46 0.44 0.46 0.50 0.53 0.58 0.63 0.67 0.65 0.64 0.63 0.64 0.62 0.47 0.31 0.22 0.19 0.14 0.09 0.05 0.05 0.03 0.02 0.01 0.02 0.02 0.02 0.02 0.03 0.03 0.02 0.03 0.05 0.04 0.02 0.02 0.02 0.02 0.02 0.03 0.04 0.04 0.05 0.04 0.05
0.11 0.13 0.16 0.24 0.27 0.31 0.36 0.45 0.46 0.45 0.43 0.41 0.39 0.37 0.35 0.34 0.37 0.39 0.39 0.39 0.40 0.43 0.49 0.55 0.55 0.55 0.54 0.53 0.52 0.53 0.54 0.57 0.62 0.66 0.70 0.71 0.65 0.54 0.40 0.19 0.13 0.08 0.04 0.03 0.02 0.01 0.01 0.01 0.01 0.01 0.02 0.02 0.04 0.03 0.02 0.04 0.03 0.02 0.01 0.01 0.01 0.01 0.01 0.01 0.02 0.02 0.03 0.03 0.03
0.08 0.10 0.11 0.11 0.13 0.17 0.22 0.28 0.33 0.44 0.52 0.52 0.46 0.43 0.42 0.43 0.39 0.39 0.39 0.40 0.40 0.42 0.44 0.45 0.54 0.60 0.61 0.60 0.58 0.55 0.53 0.51 0.48 0.51 0.56 0.60 0.59 0.53 0.42 0.23 0.14 0.08 0.05 0.05 0.04 0.03 0.02 0.02 0.02 0.02 0.01 0.01 0.03 0.03 0.03 0.03 0.03 0.02 0.02 0.01 0.01 0.01 0.01 0.01 0.02 0.02 0.02 0.00 0.01
0.07 0.09 0.09 0.08 0.06 0.07 0.09 0.13 0.17 0.29 0.43 0.56 0.59 0.55 0.49 0.43 0.41 0.41 0.42 0.44 0.46 0.46 0.46 0.45 0.44 0.48 0.52 0.54 0.54 0.51 0.48 0.46 0.38 0.33 0.32 0.33 0.38 0.40 0.40 0.37 0.23 0.15 0.11 0.10 0.06 0.04 0.02 0.02 0.02 0.01 0.00 0.01 0.01 0.01 0.02 0.02 0.01 0.01 0.01 0.01 0.01 0.01 0.01 0.00 0.00 0.00 0.01 0.01 0.01
0.05 0.06 0.06 0.05 0.04 0.05 0.05 0.05 0.07 0.12 0.22 0.34 0.49 0.61 0.67 0.62 0.54 0.48 0.46 0.49 0.50 0.51 0.50 0.48 0.40 0.36 0.34 0.33 0.35 0.36 0.36 0.35 0.31 0.27 0.24 0.23 0.23 0.24 0.28 0.29 0.25 0.19 0.14 0.11 0.07 0.05 0.03 0.02 0.01 0.01 0.01 0.01 0.01 0.01 0.01 0.02 0.02 0.02 0.02 0.01 0.01 0.01 0.01 0.01 0.01 0.02 0.02 0.02 0.02
0.06 0.06 0.06 0.04 0.04 0.04 0.05 0.06 0.06 0.08 0.11 0.15 0.24 0.39 0.59 0.79 0.80 0.65 0.49 0.48 0.49 0.49 0.49 0.45 0.37 0.29 0.22 0.20 0.18 0.17 0.18 0.21 0.23 0.23 0.21 0.20 0.18 0.16 0.16 0.18 0.16 0.14 0.11 0.08 0.06 0.04 0.03 0.02 0.01 0.01 0.02 0.02 0.02 0.02 0.02 0.03 0.03 0.03 0.03 0.03 0.03 0.03 0.03 0.02 0.02 0.03 0.03 0.03 0.03
0.07 0.06 0.05 0.05 0.06 0.07 0.07 0.08 0.08 0.10 0.12 0.13 0.14 0.19 0.29 0.45 0.67 0.71 0.64 0.53 0.45 0.41 0.39 0.38 0.32 0.25 0.18 0.15 0.13 0.11 0.10 0.10 0.12 0.14 0.16 0.14 0.12 0.11 0.10 0.08 0.05 0.07 0.08 0.07 0.05 0.04 0.02 0.02 0.02 0.02 0.02 0.02 0.02 0.03 0.03 0.03 0.03 0.03 0.04 0.04 0.04 0.04 0.03 0.03 0.03 0.03 0.03 0.03 0.03
0.11 0.09 0.08 0.08 0.09 0.10 0.10 0.10 0.11 0.13 0.15 0.16 0.17 0.20 0.23 0.26 0.31 0.48 0.62 0.59 0.49 0.43 0.38 0.35 0.30 0.24 0.18 0.15 0.12 0.10 0.09 0.08 0.08 0.09 0.10 0.10 0.08 0.07 0.07 0.05 0.04 0.04 0.05 0.06 0.04 0.03 0.02 0.02 0.02 0.02 0.03 0.03 0.03 0.03 0.04 0.04 0.05 0.05 0.06 0.05 0.05 0.05 0.04 0.03 0.05 0.05 0.05 0.05 0.04
0.14 0.12 0.12 0.14 0.14 0.15 0.15 0.16 0.16 0.19 0.22 0.23 0.24 0.25 0.26 0.26 0.27 0.29 0.32 0.36 0.39 0.40 0.39 0.34 0.28 0.22 0.18 0.15 0.12 0.10 0.08 0.08 0.08 0.08 0.08 0.07 0.07 0.06 0.05 0.05 0.05 0.05 0.04 0.04 0.04 0.03 0.03 0.02 0.02 0.03 0.03 0.03 0.04 0.04 0.04 0.05 0.05 0.06 0.06 0.06 0.06 0.06 0.06 0.06 0.06 0.07 0.07 0.07 0.07
0.18 0.17 0.18 0.19 0.20 0.21 0.22 0.23 0.25 0.27 0.29 0.29 0.29 0.29 0.30 0.30 0.31 0.28 0.25 0.22 0.23 0.26 0.28 0.26 0.21 0.18 0.15 0.13 0.11 0.09 0.08 0.07 0.06 0.06 0.06 0.05 0.05 0.04 0.04 0.04 0.04 0.05 0.05 0.04 0.03 0.03 0.03 0.03 0.03 0.03 0.03 0.04 0.04 0.05 0.04 0.04 0.04 0.04 0.04 0.04 0.04 0.05 0.05 0.06 0.04 0.04 0.05 0.05 0.06
0.22 0.22 0.24 0.24 0.25 0.25 0.26 0.28 0.31 0.34 0.36 0.34 0.34 0.34 0.35 0.34 0.34 0.32 0.29 0.24 0.21 0.19 0.18 0.16 0.14 0.12 0.11 0.09 0.08 0.07 0.06 0.06 0.05 0.05 0.04 0.04 0.04 0.03 0.03 0.03 0.03 0.04 0.04 0.04 0.03 0.03 0.03 0.03 0.03 0.03 0.04 0.04 0.05 0.05 0.05 0.05 0.05 0.05 0.05 0.05 0.05 0.04 0.04 0.04 0.03 0.03 0.03 0.03 0.03
0.28 0.29 0.29 0.28 0.28 0.28 0.29 0.31 0.33 0.36 0.39 0.38 0.38 0.38 0.38 0.36 0.34 0.33 0.31 0.25 0.21 0.17 0.15 0.12 0.10 0.09 0.08 0.06 0.06 0.06 0.05 0.05 0.04 0.05 0.04 0.04 0.04 0.03 0.03 0.03 0.03 0.03 0.03 0.03 0.03 0.03 0.03 0.04 0.04 0.04 0.05 0.05 0.05 0.05 0.05 0.05 0.05 0.05 0.05 0.05 0.04 0.04 0.04 0.04 0.04 0.04 0.04 0.04 0.04
0.34 0.34 0.34 0.33 0.32 0.32 0.32 0.33 0.34 0.37 0.39 0.38 0.37 0.37 0.36 0.36 0.35 0.34 0.30 0.22 0.19 0.17 0.15 0.13 0.11 0.09 0.07 0.06 0.06 0.05 0.05 0.04 0.04 0.05 0.05 0.04 0.04 0.04 0.03 0.03 0.03 0.03 0.03 0.03 0.03 0.03 0.03 0.04 0.04 0.05 0.05 0.05 0.05 0.05 0.05 0.05 0.05 0.05 0.05 0.05 0.04 0.04 0.05 0.05 0.05 0.06 0.06 0.07 0.08
0.38 0.39 0.38 0.38 0.36 0.35 0.35 0.35 0.35 0.37 0.38 0.35 0.34 0.33 0.33 0.33 0.32 0.31 0.28 0.21 0.18 0.17 0.15 0.14 0.12 0.10 0.08 0.07 0.06 0.05 0.05 0.04 0.04 0.04 0.04 0.04 0.04 0.04 0.04 0.04 0.05 0.05 0.05 0.04 0.04 0.05 0.05 0.05 0.05 0.05 0.06 0.06 0.06 0.06 0.05 0.05 0.05 0.05 0.05 0.05 0.04 0.05 0.05 0.07 0.07 0.07 0.07 0.08 0.08
0.36 0.38 0.40 0.40 0.39 0.38 0.38 0.38 0.40 0.40 0.39 0.37 0.36 0.35 0.33 0.32 0.30 0.28 0.25 0.21 0.18 0.16 0.15 0.13 0.12 0.11 0.10 0.10 0.08 0.07 0.06 0.05 0.05 0.04 0.04 0.04 0.04 0.04 0.04 0.04 0.05 0.05 0.05 0.05 0.05 0.06 0.07 0.07 0.07 0.07 0.08 0.08 0.08 0.08 0.08 0.08 0.08 0.08 0.08 0.07 0.07 0.10 0.12 0.12 0.13 0.13 0.13 0.13 0.13
0.32 0.34 0.37 0.40 0.43 0.45 0.46 0.47 0.46 0.45 0.43 0.41 0.40 0.39 0.37 0.34 0.31 0.29 0.26 0.22 0.19 0.17 0.15 0.14 0.13 0.12 0.12 0.11 0.09 0.08 0.08 0.07 0.07 0.06 0.05 0.04 0.04 0.04 0.04 0.04 0.04 0.05 0.05 0.05 0.05 0.06 0.08 0.09 0.09 0.10 0.10 0.10 0.11 0.11 0.12 0.12 0.13 0.14 0.14 0.14 0.14 0.10 0.06 0.06 0.06 0.06 0.06 0.07 0.07
0.33 0.34 0.37 0.42 0.46 0.49 0.51 0.53 0.52 0.50 0.47 0.44 0.43 0.42 0.41 0.38 0.34 0.31 0.28 0.24 0.21 0.19 0.16 0.15 0.14 0.14 0.13 0.12 0.10 0.10 0.10 0.09 0.09 0.08 0.08 0.07 0.06 0.06 0.06 0.07 0.06 0.07 0.07 0.07 0.07 0.07 0.07 0.08 0.10 0.09 0.06 0.04 0.04 0.04 0.04 0.04 0.04 0.04 0.04 0.05 0.05 0.04 0.02 0.02 0.02 0.02 0.02 0.02 0.03
0.40 0.41 0.42 0.42 0.45 0.48 0.53 0.57 0.54 0.52 0.49 0.47 0.47 0.46 0.44 0.41 0.37 0.34 0.31 0.27 0.23 0.20 0.18 0.16 0.16 0.16 0.15 0.14 0.13 0.12 0.11 0.11 0.10 0.10 0.09 0.08 0.08 0.08 0.08 0.07 0.08 0.08 0.09 0.07 0.07 0.07 0.06 0.06 0.05 0.04 0.02 0.01 0.01 0.01 0.01 0.01 0.01 0.01 0.01 0.01 0.01 0.01 0.01 0.01 0.01 0.01 0.01 0.01 0.01
0.47 0.49 0.49 0.48 0.51 0.56 0.59 0.59 0.55 0.52 0.51 0.51 0.50 0.47 0.44 0.40 0.38 0.36 0.34 0.29 0.25 0.23 0.21 0.19 0.19 0.18 0.18 0.18 0.16 0.15 0.13 0.12 0.11 0.11 0.10 0.09 0.09 0.08 0.08 0.07 0.07 0.08 0.08 0.07 0.06 0.05 0.05 0.04 0.03 0.02 0.01 0.00 0.01 0.01 0.01 0.01 0.01 0.00 0.01 0.00 0.01 0.02 0.01 0.01 0.01 0.00 0.00 0.00 0.00
0.55 0.57 0.57 0.58 0.62 0.65 0.66 0.63 0.60 0.58 0.57 0.54 0.49 0.45 0.40 0.36 0.34 0.34 0.33 0.32 0.28 0.26 0.24 0.23 0.22 0.22 0.22 0.21 0.19 0.17 0.15 0.13 0.12 0.12 0.11 0.10 0.10 0.09 0.08 0.08 0.08 0.08 0.08 0.06 0.05 0.05 0.04 0.03 0.02 0.01 0.01 0.00 0.01 0.02 0.02 0.02 0.02 0.02 0.02 0.02 0.02 0.02 0.02 0.02 0.02 0.01 0.01 0.01 0.01
0.62 0.63 0.65 0.67 0.72 0.73 0.72 0.70 0.65 0.60 0.55 0.51 0.47 0.42 0.38 0.33 0.32 0.30 0.30 0.29 0.26 0.26 0.25 0.25 0.22 0.21 0.21 0.21 0.19 0.16 0.15 0.14 0.13 0.13 0.13 0.13 0.12 0.11 0.10 0.10 0.10 0.10 0.09 0.07 0.06 0.05 0.03 0.01 0.01 0.01 0.01 0.01 0.02 0.03 0.03 0.04 0.04 0.03 0.03 0.03 0.02 0.02 0.02 0.01 0.01 0.01 0.01 0.01 0.01
0.75 0.73 0.71 0.72 0.71 0.71 0.71 0.71 0.61 0.54 0.49 0.45 0.42 0.39 0.36 0.32 0.31 0.30 0.28 0.26 0.24 0.21 0.19 0.19 0.19 0.19 0.19 0.18 0.17 0.16 0.16 0.15 0.15 0.15 0.14 0.14 0.13 0.12 0.11 0.10 0.10 0.10 0.09 0.08 0.05 0.02 0.01 0.01 0.01 0.01 0.01 0.01 0.02 0.03 0.03 0.04 0.03 0.03 0.02 0.02 0.02 0.01 0.01 0.01 0.01 0.01 0.01 0.01 0.01
0.77 0.74 0.71 0.69 0.67 0.66 0.64 0.61 0.51 0.45 0.42 0.39 0.37 0.34 0.32 0.30 0.30 0.29 0.28 0.25 0.21 0.20 0.19 0.20 0.19 0.18 0.18 0.18 0.17 0.17 0.16 0.15 0.13 0.12 0.11 0.10 0.09 0.08 0.07 0.07 0.07 0.06 0.06 0.04 0.03 0.02 0.01 0.01 0.01 0.02 0.02 0.01 0.02 0.02 0.03 0.03 0.03 0.02 0.02 0.02 0.02 0.01 0.01 0.02 0.02 0.02 0.02 0.03 0.03
0.69 0.65 0.62 0.59 0.57 0.55 0.51 0.46 0.42 0.38 0.36 0.33 0.31 0.29 0.27 0.24 0.23 0.23 0.23 0.23 0.21 0.20 0.20 0.20 0.19 0.18 0.17 0.16 0.16 0.15 0.13 0.12 0.10 0.08 0.06 0.05 0.05 0.04 0.04 0.03 0.04 0.03 0.03 0.01 0.01 0.01 0.01 0.02 0.02 0.02 0.02 0.02 0.02 0.02 0.02 0.02 0.02 0.02 0.02 0.02 0.02 0.02 0.03 0.03 0.04 0.04 0.05 0.05 0.07
0.58 0.55 0.51 0.47 0.45 0.43 0.42 0.40 0.32 0.28 0.26 0.25 0.24 0.23 0.22 0.22 0.22 0.22 0.22 0.22 0.21 0.20 0.18 0.17 0.16 0.15 0.14 0.12 0.12 0.11 0.10 0.08 0.07 0.05 0.03 0.02 0.02 0.02 0.02 0.02 0.03 0.03 0.02 0.01 0.01 0.01 0.02 0.02 0.02 0.02 0.02 0.01 0.02 0.02 0.02 0.02 0.03 0.03 0.03 0.03 0.03 0.03 0.04 0.05 0.05 0.06 0.06 0.07 0.07
0.52 0.49 0.45 0.42 0.39 0.38 0.37 0.34 0.29 0.25 0.24 0.23 0.22 0.21 0.20 0.20 0.20 0.20 0.19 0.19 0.18 0.16 0.14 0.13 0.12 0.10 0.09 0.08 0.07 0.07 0.06 0.05 0.04 0.03 0.02 0.01 0.01 0.01 0.02 0.02 0.03 0.03 0.02 0.01 0.02 0.02 0.02 0.02 0.02 0.02 0.02 0.01 0.02 0.02 0.03 0.03 0.03 0.03 0.03 0.03 0.04 0.04 0.04 0.05 0.05 0.06 0.06 0.06 0.07
0.43 0.41 0.39 0.37 0.34 0.33 0.31 0.30 0.25 0.23 0.22 0.21 0.20 0.19 0.18 0.17 0.17 0.17 0.16 0.15 0.14 0.12 0.11 0.10 0.08 0.07 0.06 0.05 0.04 0.04 0.03 0.03 0.02 0.02 0.02 0.01 0.01 0.02 0.02 0.02 0.03 0.03 0.02 0.02 0.02 0.02 0.02 0.03 0.03 0.02 0.02 0.02 0.03 0.03 0.03 0.03 0.03 0.03 0.04 0.04 0.05 0.05 0.05 0.05 0.05 0.05 0.06 0.06 0.07
0.37 0.35 0.33 0.31 0.30 0.29 0.28 0.26 0.23 0.21 0.20 0.19 0.18 0.17 0.16 0.15 0.15 0.14 0.12 0.11 0.10 0.09 0.08 0.07 0.06 0.05 0.04 0.03 0.03 0.02 0.02 0.02 0.02 0.02 0.01 0.01 0.02 0.02 0.02 0.02 0.03 0.02 0.02 0.02 0.02 0.02 0.03 0.03 0.03 0.03 0.03 0.03 0.03 0.03 0.03 0.04 0.04 0.04 0.04 0.05 0.05 0.05 0.05 0.05 0.05 0.05 0.05 0.06 0.07
0.37 0.33 0.29 0.27 0.27 0.26 0.25 0.22 0.21 0.20 0.19 0.18 0.17 0.16 0.14 0.13 0.12 0.11 0.10 0.08 0.07 0.07 0.06 0.05 0.04 0.03 0.02 0.02 0.02 0.01 0.01 0.01 0.01 0.01 0.01 0.01 0.01 0.02 0.02 0.02 0.03 0.03 0.02 0.02 0.03 0.03 0.03 0.03 0.03 0.03 0.03 0.03 0.04 0.04 0.04 0.04 0.04 0.05 0.05 0.05 0.05 0.05 0.04 0.04 0.04 0.04 0.04 0.05 0.06
0.42 0.37 0.31 0.26 0.26 0.25 0.24 0.22 0.20 0.19 0.18 0.17 0.16 0.14 0.13 0.11 0.10 0.10 0.08 0.07 0.06 0.05 0.04 0.03 0.02 0.02 0.01 0.01 0.01 0.01 0.01 0.01 0.01 0.01 0.01 0.01 0.01 0.02 0.02 0.02 0.03 0.03 0.03 0.02 0.03 0.03 0.03 0.03 0.03 0.03 0.03 0.04 0.04 0.04 0.04 0.05 0.05 0.05 0.05 0.04 0.04 0.04 0.03 0.03 0.03 0.03 0.04 0.05 0.06
0.46 0.41 0.36 0.30 0.27 0.25 0.23 0.21 0.20 0.18 0.16 0.15 0.14 0.13 0.12 0.10 0.09 0.08 0.07 0.06 0.05 0.04 0.03 0.02 0.01 0.01 0.01 0.00 0.00 0.00 0.00 0.00 0.01 0.01 0.01 0.01 0.02 0.02 0.02 0.02 0.03 0.03 0.03 0.02 0.03 0.03 0.03 0.03 0.03 0.03 0.04 0.04 0.04 0.04 0.05 0.05 0.05 0.05 0.04 0.04 0.03 0.03 0.03 0.02 0.02 0.03 0.04 0.04 0.04
0.45 0.42 0.39 0.34 0.30 0.27 0.24 0.21 0.19 0.17 0.16 0.14 0.13 0.12 0.11 0.10 0.08 0.07 0.06 0.05 0.04 0.03 0.02 0.01 0.01 0.00 0.00 0.00 0.00 0.00 0.00 0.00 0.01 0.01 0.01 0.01 0.01 0.01 0.01 0.02 0.02 0.02 0.03 0.03 0.02 0.03 0.03 0.03 0.03 0.04 0.04 0.04 0.04 0.04 0.04 0.04 0.05 0.04 0.04 0.04 0.03 0.03 0.02 0.02 0.02 0.03 0.03 0.03 0.04
0.42 0.40 0.38 0.36 0.33 0.29 0.25 0.21 0.19 0.17 0.15 0.13 0.12 0.11 0.09 0.08 0.07 0.06 0.05 0.04 0.04 0.03 0.02 0.01 0.00 0.00 0.00 0.00 0.00 0.00 0.00 0.00 0.01 0.01 0.01 0.01 0.01 0.01 0.02 0.02 0.02 0.02 0.02 0.02 0.02 0.02 0.03 0.03 0.03 0.04 0.04 0.05 0.04 0.04 0.04 0.04 0.04 0.05 0.04 0.04 0.03 0.03 0.02 0.02 0.03 0.03 0.04 0.04 0.05